User: anonymous   Login
Location: Unspecified
(0.0000°N, 0.0000°E)
Time: 18:14:09
(UTC+00:00)
Language:

STARLINK-6055 - Orbit

View from above orbital plane
View from above orbital plane
View from above satellite
View from above satellite

Ground track
Ground track

The orbit is defined by the following mean orbital elements,

1 56467U          26145.11252185 +.00000000 +00000-0 +67929-8 0 00005
2 56467  69.9991 291.8877 0002862 270.7560  89.3271 14.98331934    05
Epoch (UTC): 25 May 2026 02:42:01
Eccentricity: 0.0002862
inclination: 69.9991°
perigee height: 570 km
apogee height: 574 km
right ascension of ascending node: 291.8877°
argument of perigee: 270.7560°
revolutions per day: 14.98331934
mean anomaly at epoch: 89.3271°

The dashed part of the orbit path shows where the satellite is in the earth's shadow,  

DLR